Location: Belvedere Heights
(33.9836°N, 117.3109°W)
Time: 08:03:58
(UTC+00:00)

COSMO-SKYMED 1 - Pass Details

Date: 21 March 2023
Orbit: 622 x 623 km, 97.9° (Epoch: 01 June)

Event Time Altitude Azimuth Distance (km) Brightness Sun altitude
Rises 12:46:40 0° 154° (SSE) 2,885 6.2 -14.3°
Reaches altitude 10° 12:48:54 10° 149° (SSE) 1,983 5.4 -13.8°
Maximum altitude 12:53:04 49° 74° (ENE) 800 3.6 -12.9°
Drops below altitude 10° 12:57:15 10° 360° (N) 1,997 5.3 -12.1°
Sets 12:59:30 0° 355° (N) 2,907 6.1 -11.6°
